Location: Arena
(42.5007°N, 9.4650°E)
Time: 10:23:48
(UTC+00:00)

Iridium 2 - Visible Passes

Search period start: 03 August 2020 00:00
Search period end: 13 August 2020 00:00
Orbit: 504 x 515 km, 85.5° (Epoch: 02 August)

Date Brightness Start Highest point End Pass type
(mag) Time Alt. Az. Time Alt. Az. Time Alt. Az.
03 Aug 3.8 19:18:28 10° N 19:22:15 80° W 19:26:00 10° S visible
04 Aug 3.6 19:01:42 10° N 19:05:29 74° E 19:09:13 10° S visible
06 Aug 6.7 20:04:53 10° NW 20:06:44 13° W 20:08:34 10° WSW visible
07 Aug 6.6 19:47:31 10° NW 19:50:03 17° W 19:52:35 10° SW visible
08 Aug 6.2 19:30:21 10° NNW 19:33:22 23° W 19:36:20 10° SW visible
09 Aug 5.8 19:13:18 10° NNW 19:16:38 30° W 19:19:57 10° SSW visible
10 Aug 5.2 18:56:21 10° NNW 18:59:54 41° W 19:03:26 10° SSW visible
